Location: Newark
(34.6283°N, 36.0776°E)
Time: 21:56:13
(UTC+00:00)

Courier 1B Rocket - Pass Details

Date: 18 September 2019
Orbit: 920 x 1202 km, 28.2° (Epoch: 14 October)

Event Time Altitude Azimuth Distance (km) Brightness Sun altitude
Rises 16:56:23 0° 266° (W) 3,784 9.5 -16.6°
Reaches altitude 10° 16:59:17 10° 260° (W) 2,786 8.4 -17.2°
Maximum altitude 17:05:33 43° 191° (S) 1,333 5.7 -18.4°
Enters shadow 17:08:36 26° 138° (SE) 1,762 5.9 -19.0°
